�������l�o���
Date,Time,MP-1(��Sv/h),MP-2(��Sv/h),MP-3(��Sv/h),MP-4(��Sv/h),MP-5(��Sv/h),MP-6(��Sv/h),MP-7(��Sv/h),MP-8(��Sv/h),����,����(m/s),���J
2021/07/01,00:00,0.614,0.904,0.579,1.101,0.788,0.366,0.639,0.597,��,4.3,��
2021/07/01,00:10,0.612,0.908,0.581,1.103,0.787,0.365,0.637,0.598,��쐼,5.0,��
2021/07/01,00:20,0.612,0.906,0.579,1.102,0.787,0.365,0.638,0.598,��,3.6,��
2021/07/01,00:30,0.612,0.904,0.579,1.103,0.787,0.367,0.639,0.597,��,3.0,��
2021/07/01,00:40,0.612,0.905,0.579,1.100,0.789,0.366,0.639,0.598,��,4.0,��
2021/07/01,00:50,0.613,0.905,0.578,1.102,0.788,0.368,0.641,0.597,��,5.6,��
2021/07/01,01:00,0.614,0.905,0.580,1.103,0.787,0.366,0.638,0.599,��,4.9,��
2021/07/01,01:10,0.613,0.906,0.580,1.101,0.789,0.365,0.639,0.597,��,5.3,��
2021/07/01,01:20,0.614,0.906,0.578,1.102,0.789,0.366,0.639,0.596,��,5.3,��
2021/07/01,01:30,0.614,0.906,0.580,1.099,0.785,0.366,0.640,0.597,��,6.1,��
2021/07/01,01:40,0.613,0.906,0.580,1.097,0.788,0.365,0.640,0.599,��,5.8,��
2021/07/01,01:50,0.614,0.906,0.578,1.102,0.787,0.366,0.639,0.598,��,6.2,��
2021/07/01,02:00,0.613,0.907,0.580,1.104,0.789,0.366,0.639,0.599,��,6.5,��
2021/07/01,02:10,0.612,0.906,0.580,1.103,0.788,0.366,0.639,0.599,��,6.2,��
2021/07/01,02:20,0.612,0.905,0.580,1.102,0.787,0.366,0.641,0.599,��,5.3,��
2021/07/01,02:30,0.614,0.903,0.580,1.101,0.788,0.366,0.641,0.598,��,4.4,��
2021/07/01,02:40,0.612,0.905,0.580,1.104,0.786,0.365,0.639,0.597,��,4.5,��
2021/07/01,02:50,0.612,0.903,0.578,1.102,0.786,0.368,0.640,0.596,��,5.1,��
2021/07/01,03:00,0.614,0.903,0.579,1.102,0.786,0.366,0.640,0.598,��,6.7,��
2021/07/01,03:10,0.612,0.903,0.579,1.102,0.787,0.365,0.641,0.598,��,6.0,�L
2021/07/01,03:20,0.613,0.902,0.578,1.103,0.786,0.365,0.641,0.598,��,5.7,��
2021/07/01,03:30,0.614,0.902,0.578,1.103,0.784,0.366,0.639,0.597,��,5.0,��
2021/07/01,03:40,0.612,0.903,0.578,1.102,0.785,0.365,0.640,0.597,��,4.8,�L
2021/07/01,03:50,0.613,0.903,0.578,1.103,0.787,0.365,0.639,0.597,��쓌,6.0,�L
2021/07/01,04:00,0.614,0.905,0.578,1.102,0.785,0.366,0.640,0.599,��쓌,5.3,�L
2021/07/01,04:10,0.614,0.905,0.580,1.103,0.786,0.365,0.638,0.597,��,5.2,�L
2021/07/01,04:20,0.613,0.902,0.581,1.103,0.786,0.367,0.639,0.598,��,5.1,�L
2021/07/01,04:30,0.615,0.903,0.580,1.102,0.785,0.366,0.639,0.597,��,5.2,�L
2021/07/01,04:40,0.612,0.902,0.580,1.101,0.783,0.365,0.638,0.597,��쓌,6.0,�L
2021/07/01,04:50,0.611,0.902,0.579,1.102,0.784,0.366,0.638,0.596,��쓌,5.2,�L
2021/07/01,05:00,0.610,0.901,0.580,1.103,0.785,0.366,0.637,0.595,��쓌,5.6,�L
2021/07/01,05:10,0.610,0.899,0.578,1.101,0.784,0.365,0.637,0.593,��,6.7,��
2021/07/01,05:20,0.609,0.900,0.577,1.100,0.784,0.365,0.638,0.596,��,5.5,��
2021/07/01,05:30,0.609,0.899,0.577,1.102,0.785,0.366,0.638,0.595,��쓌,6.0,��
2021/07/01,05:40,0.611,0.900,0.579,1.102,0.783,0.365,0.637,0.596,��쓌,6.4,��
2021/07/01,05:50,0.610,0.900,0.577,1.102,0.785,0.365,0.639,0.595,��쓌,7.0,��
2021/07/01,06:00,0.610,0.899,0.577,1.100,0.784,0.364,0.638,0.594,��쓌,7.6,��
2021/07/01,06:10,0.608,0.901,0.577,1.101,0.783,0.366,0.639,0.595,��쓌,7.8,�L
2021/07/01,06:20,0.610,0.900,0.577,1.101,0.782,0.364,0.639,0.595,��쓌,7.2,�L
2021/07/01,06:30,0.611,0.898,0.577,1.102,0.785,0.365,0.637,0.593,��,6.5,��
2021/07/01,06:40,0.609,0.899,0.576,1.101,0.784,0.364,0.638,0.593,��,7.5,��
2021/07/01,06:50,0.609,0.899,0.576,1.101,0.784,0.364,0.638,0.595,��쓌,7.6,��
2021/07/01,07:00,0.610,0.899,0.576,1.101,0.785,0.364,0.639,0.594,��,6.0,��
2021/07/01,07:10,0.610,0.898,0.577,1.100,0.783,0.366,0.637,0.594,��,4.4,��
2021/07/01,07:20,0.610,0.896,0.576,1.101,0.786,0.365,0.638,0.595,��,4.8,��
2021/07/01,07:30,0.609,0.898,0.578,1.100,0.784,0.365,0.639,0.594,��,4.7,��
2021/07/01,07:40,0.609,0.898,0.577,1.101,0.783,0.364,0.639,0.594,��,5.8,�L
2021/07/01,07:50,0.610,0.899,0.578,1.100,0.784,0.365,0.638,0.595,��,5.6,�L
2021/07/01,08:00,0.612,0.901,0.579,1.102,0.783,0.364,0.640,0.595,��쓌,6.5,�L
2021/07/01,08:10,0.609,0.899,0.577,1.101,0.786,0.364,0.638,0.596,��,5.3,�L
2021/07/01,08:20,0.612,0.900,0.579,1.102,0.785,0.364,0.637,0.596,��,5.8,�L
2021/07/01,08:30,0.611,0.898,0.580,1.103,0.786,0.364,0.639,0.597,��,6.3,�L
2021/07/01,08:40,0.612,0.897,0.580,1.100,0.784,0.366,0.640,0.594,��,5.4,�L
2021/07/01,08:50,0.613,0.899,0.579,1.101,0.785,0.365,0.640,0.593,��,5.3,�L
2021/07/01,09:00,0.613,0.899,0.578,1.101,0.785,0.365,0.639,0.594,��,5.5,�L
2021/07/01,09:10,0.611,0.900,0.578,1.101,0.788,0.366,0.640,0.595,��,3.5,�L
2021/07/01,09:20,0.611,0.900,0.579,1.101,0.788,0.366,0.641,0.596,��,5.3,�L
2021/07/01,09:30,0.613,0.901,0.578,1.102,0.787,0.365,0.639,0.597,��,5.7,�L
2021/07/01,09:40,0.613,0.900,0.578,1.102,0.788,0.364,0.640,0.596,��,6.0,�L
2021/07/01,09:50,0.613,0.902,0.578,1.100,0.787,0.365,0.639,0.595,��,5.2,�L
2021/07/01,10:00,0.611,0.901,0.578,1.104,0.790,0.365,0.639,0.597,��,5.6,��
2021/07/01,10:10,0.613,0.900,0.578,1.101,0.788,0.365,0.639,0.598,��,4.3,�L
2021/07/01,10:20,0.611,0.900,0.578,1.101,0.789,0.365,0.639,0.596,��,3.8,�L
2021/07/01,10:30,0.611,0.901,0.578,1.104,0.788,0.365,0.641,0.597,��,4.1,�L
2021/07/01,10:40,0.610,0.899,0.577,1.101,0.786,0.365,0.638,0.595,��쓌,4.9,�L
2021/07/01,10:50,0.611,0.899,0.578,1.101,0.786,0.366,0.638,0.597,��쓌,5.4,�L
2021/07/01,11:00,0.612,0.898,0.578,1.101,0.787,0.366,0.639,0.597,��쓌,5.2,�L
2021/07/01,11:10,0.612,0.900,0.577,1.103,0.786,0.364,0.639,0.597,��쓌,3.8,�L
2021/07/01,11:20,0.613,0.897,0.579,1.101,0.784,0.364,0.638,0.597,��쓌,5.4,�L
2021/07/01,11:30,0.613,0.901,0.579,1.103,0.786,0.365,0.639,0.597,��쓌,4.3,��
2021/07/01,11:40,0.614,0.900,0.577,1.103,0.784,0.366,0.639,0.595,��,5.4,�L
2021/07/01,11:50,0.614,0.899,0.578,1.101,0.785,0.364,0.637,0.595,��,4.0,��
2021/07/01,12:00,0.613,0.902,0.577,1.103,0.786,0.364,0.638,0.593,��,4.7,�L
2021/07/01,12:10,0.611,0.903,0.579,1.103,0.785,0.365,0.637,0.594,��쓌,3.7,��
2021/07/01,12:20,0.614,0.902,0.578,1.104,0.786,0.364,0.636,0.596,��쓌,4.4,��
2021/07/01,12:30,0.613,0.900,0.577,1.104,0.787,0.363,0.639,0.595,��,5.3,��
2021/07/01,12:40,0.614,0.903,0.577,1.103,0.785,0.365,0.637,0.596,��쓌,6.6,��
2021/07/01,12:50,0.612,0.902,0.578,1.103,0.785,0.366,0.638,0.594,��쓌,4.2,��
2021/07/01,13:00,0.613,0.901,0.577,1.103,0.787,0.366,0.639,0.595,��쓌,4.8,��
2021/07/01,13:10,0.614,0.903,0.576,1.101,0.786,0.366,0.639,0.596,��쓌,5.9,��
2021/07/01,13:20,0.614,0.902,0.576,1.100,0.790,0.366,0.639,0.596,��쓌,4.5,��
2021/07/01,13:30,0.615,0.902,0.579,1.101,0.787,0.365,0.640,0.596,��,5.1,�L
2021/07/01,13:40,0.615,0.903,0.578,1.100,0.789,0.367,0.641,0.596,��쐼,4.8,�L
2021/07/01,13:50,0.615,0.900,0.577,1.102,0.789,0.367,0.639,0.595,��,5.1,��
2021/07/01,14:00,0.612,0.901,0.578,1.101,0.791,0.367,0.639,0.596,��쓌,4.1,�L
2021/07/01,14:10,0.615,0.902,0.579,1.104,0.788,0.366,0.639,0.594,��쓌,3.5,�L
2021/07/01,14:20,0.615,0.902,0.577,1.101,0.787,0.367,0.638,0.595,��쓌,2.6,�L
2021/07/01,14:30,0.614,0.900,0.577,1.102,0.787,0.365,0.638,0.595,��쐼,2.2,�L
2021/07/01,14:40,0.611,0.901,0.578,1.099,0.783,0.366,0.637,0.595,��,2.0,�L
2021/07/01,14:50,0.609,0.893,0.575,1.097,0.780,0.366,0.635,0.592,��쓌,2.6,�L
2021/07/01,15:00,0.607,0.889,0.571,1.091,0.776,0.363,0.634,0.592,�쓌,1.2,�L
2021/07/01,15:10,0.606,0.887,0.570,1.092,0.774,0.365,0.634,0.590,�쓌,2.2,�L
2021/07/01,15:20,0.605,0.888,0.570,1.090,0.773,0.365,0.632,0.590,�쓌,2.3,�L
2021/07/01,15:30,0.606,0.887,0.569,1.091,0.773,0.365,0.633,0.590,��쓌,2.8,�L
2021/07/01,15:40,0.605,0.885,0.568,1.090,0.773,0.362,0.633,0.590,��쓌,2.6,�L
2021/07/01,15:50,0.604,0.886,0.569,1.092,0.772,0.364,0.633,0.591,��쓌,2.3,�L
2021/07/01,16:00,0.605,0.889,0.568,1.091,0.771,0.364,0.631,0.592,��,3.5,�L
2021/07/01,16:10,0.604,0.887,0.568,1.091,0.773,0.365,0.633,0.591,��,3.3,�L
2021/07/01,16:20,0.603,0.886,0.569,1.091,0.772,0.363,0.633,0.591,��,3.6,�L
2021/07/01,16:30,0.604,0.889,0.570,1.092,0.771,0.363,0.632,0.592,��,2.0,��
2021/07/01,16:40,0.604,0.887,0.570,1.090,0.770,0.362,0.632,0.591,��쐼,2.2,��
2021/07/01,16:50,0.604,0.887,0.570,1.091,0.773,0.363,0.632,0.591,��,1.9,��
2021/07/01,17:00,0.603,0.890,0.568,1.091,0.771,0.364,0.632,0.591,��,1.5,��
2021/07/01,17:10,0.603,0.888,0.570,1.091,0.772,0.362,0.633,0.591,��쓌,1.4,��
2021/07/01,17:20,0.604,0.888,0.570,1.093,0.771,0.362,0.632,0.592,��쓌,1.5,��
2021/07/01,17:30,0.604,0.888,0.570,1.090,0.772,0.363,0.633,0.591,��쐼,1.5,��
2021/07/01,17:40,0.603,0.889,0.569,1.089,0.774,0.364,0.632,0.590,��쓌,1.2,��
2021/07/01,17:50,0.605,0.888,0.570,1.091,0.771,0.362,0.632,0.590,���쓌,0.9,��
2021/07/01,18:00,0.603,0.888,0.569,1.091,0.773,0.362,0.633,0.591,���k��,1.7,��
2021/07/01,18:10,0.604,0.890,0.568,1.090,0.774,0.363,0.633,0.591,���k��,1.7,��
2021/07/01,18:20,0.603,0.888,0.568,1.089,0.773,0.363,0.633,0.590,��,1.7,��
2021/07/01,18:30,0.602,0.889,0.568,1.092,0.771,0.363,0.632,0.590,��,4.2,�L
2021/07/01,18:40,0.606,0.888,0.568,1.091,0.773,0.363,0.634,0.590,��,3.8,��
2021/07/01,18:50,0.603,0.891,0.569,1.092,0.773,0.362,0.633,0.590,���쓌,2.9,��
2021/07/01,19:00,0.603,0.890,0.569,1.091,0.773,0.363,0.634,0.591,�쓌,2.3,��
2021/07/01,19:10,0.603,0.891,0.570,1.094,0.773,0.363,0.633,0.591,�쓌,2.5,�L
2021/07/01,19:20,0.604,0.892,0.571,1.090,0.773,0.364,0.633,0.592,��쓌,3.5,�L
2021/07/01,19:30,0.604,0.892,0.572,1.093,0.772,0.363,0.633,0.591,��쓌,1.9,�L
2021/07/01,19:40,0.604,0.890,0.572,1.092,0.774,0.362,0.632,0.592,��쓌,0.9,��
2021/07/01,19:50,0.606,0.891,0.573,1.092,0.773,0.363,0.633,0.592,-,CALM,��
2021/07/01,20:00,0.605,0.891,0.571,1.092,0.775,0.365,0.632,0.592,���k��,0.6,��
2021/07/01,20:10,0.605,0.892,0.571,1.093,0.775,0.364,0.634,0.592,�k�k��,0.6,��
2021/07/01,20:20,0.605,0.894,0.571,1.091,0.776,0.364,0.635,0.592,�k,0.9,��
2021/07/01,20:30,0.605,0.893,0.572,1.094,0.774,0.365,0.635,0.595,�k,1.9,��
2021/07/01,20:40,0.605,0.891,0.571,1.094,0.776,0.363,0.634,0.594,�k,1.9,��
2021/07/01,20:50,0.605,0.891,0.572,1.094,0.775,0.365,0.634,0.594,�k�k��,1.9,��
2021/07/01,21:00,0.605,0.890,0.570,1.094,0.776,0.363,0.632,0.594,�k,1.5,��
2021/07/01,21:10,0.605,0.892,0.573,1.093,0.774,0.363,0.635,0.594,�k,0.6,��
2021/07/01,21:20,0.605,0.891,0.571,1.094,0.776,0.365,0.634,0.594,�k,0.8,��
2021/07/01,21:30,0.605,0.892,0.572,1.093,0.774,0.363,0.635,0.594,�k,0.9,��
2021/07/01,21:40,0.604,0.893,0.570,1.093,0.777,0.364,0.635,0.593,-,CALM,��
2021/07/01,21:50,0.605,0.890,0.573,1.092,0.777,0.365,0.635,0.594,-,CALM,��
2021/07/01,22:00,0.606,0.891,0.572,1.092,0.777,0.363,0.635,0.593,-,CALM,�L
2021/07/01,22:10,0.604,0.893,0.571,1.094,0.775,0.365,0.635,0.593,���k��,0.8,�L
2021/07/01,22:20,0.604,0.893,0.572,1.094,0.776,0.364,0.635,0.593,���k��,0.6,�L
2021/07/01,22:30,0.605,0.889,0.572,1.093,0.777,0.365,0.635,0.593,-,CALM,��
2021/07/01,22:40,0.605,0.888,0.571,1.093,0.776,0.364,0.634,0.592,�k�k��,0.9,��
2021/07/01,22:50,0.605,0.889,0.571,1.093,0.777,0.363,0.634,0.593,-,CALM,��
2021/07/01,23:00,0.604,0.890,0.571,1.093,0.777,0.365,0.632,0.592,�k�k��,0.9,��
2021/07/01,23:10,0.603,0.889,0.572,1.091,0.778,0.365,0.635,0.592,�k,0.9,��
2021/07/01,23:20,0.605,0.889,0.571,1.092,0.775,0.366,0.635,0.593,-,CALM,�L
2021/07/01,23:30,0.605,0.887,0.571,1.091,0.777,0.365,0.635,0.592,�k,0.6,�L
2021/07/01,23:40,0.604,0.887,0.571,1.090,0.776,0.366,0.634,0.592,�k�k��,0.6,�L
2021/07/01,23:50,0.602,0.886,0.570,1.085,0.774,0.364,0.634,0.593,�k,0.9,�L
